Printer-friendly version

IAU Minor Planet Center

Minor Planet Center

MPEC 2005-T64 : 2005 TF49

The following Minor Planet Electronic Circular may be linked-to from your own Web pages, but must not otherwise be redistributed electronically.


Read MPEC 2005-T63 Read MPEC 2005-T65


M.P.E.C. 2005-T64                                Issued 2005 Oct. 11, 02:17 UT

     The Minor Planet Electronic Circulars contain information on unusual
         minor planets and routine data on comets.  They are published
   on behalf of Commission 20 of the International Astronomical Union by the
          Minor Planet Center, Smithsonian Astrophysical Observatory,
                          Cambridge, MA 02138, U.S.A.

                  Supported in part by the Brinson Foundation
             Prepared using the Tamkin Foundation Computer Network

                              MPC@CFA.HARVARD.EDU
          URL http://cfa-www.harvard.edu/iau/mpc.html  ISSN 1523-6714

                                   2005 TF49

Observations:
     K05T49F* C2005 10 08.48864 07 32 07.67 +33 11 32.7          18.9 R ET064699
     K05T49F  C2005 10 08.49413 07 32 09.16 +33 11 53.1                 ET064699
     K05T49F  C2005 10 08.49961 07 32 10.94 +33 12 15.5                 ET064699
     K05T49F  C2005 10 08.50510 07 32 12.30 +33 12 37.2                 ET064699
     K05T49F  C2005 10 09.00225 07 34 39.65 +33 45 08.5          18.7 V ET064A50
     K05T49F  C2005 10 09.00301 07 34 39.89 +33 45 11.5          18.5 V ET064A50
     K05T49F  C2005 10 09.00377 07 34 40.08 +33 45 14.2          18.8 V ET064A50
     K05T49F  C2005 10 09.00455 07 34 40.26 +33 45 17.2          18.7 V ET064A50
     K05T49F  C2005 10 09.00531 07 34 40.40 +33 45 20.9          19.1 V ET064A50
     K05T49F  C2005 10 10.31960 07 41 17.80 +35 11 18.7          20.8 R ET064649
     K05T49F  C2005 10 10.32138 07 41 18.36 +35 11 25.7          19.6 R ET064649
     K05T49F  C2005 10 10.32316 07 41 18.93 +35 11 32.0          19.6 R ET064649
     K05T49F  C2005 10 10.32494 07 41 19.46 +35 11 39.6          20.4 R ET064649
     K05T49F  C2005 10 10.32849 07 41 20.54 +35 11 53.9          20.1 R ET064649
     K05T49F  C2005 10 11.04977 07 45 03.66 +35 58 42.8          19.6 V ET064A50
     K05T49F  C2005 10 11.05270 07 45 04.59 +35 58 54.3          19.7 V ET064A50
     K05T49F  C2005 10 11.05854 07 45 06.39 +35 59 17.0          19.5 V ET064A50
     K05T49F  C2005 10 11.06146 07 45 07.29 +35 59 28.4          20.0 V ET064A50

Observer details:
649 Powell Observatory, Louisburg.  Observer R. Trentman.  0.75-m Newtonian
    reflector + CCD.
699 Lowell Observatory-LONEOS.  Observer M. E. Van Ness.  0.59-m LONEOS
    Schmidt + CCD.
A50 Andrushivka Astronomical Observatory.  Observers D. Kyrylenko,
    Y. Ivashchenko.  0.6-m f/2.0 reflector + CCD.

Orbital elements:
2005 TF49                                                            PHA 0.044A
Epoch 2005 Sept. 27.0 TT = JDT 2453640.5                MPC
M  10.54295              (2000.0)            P               Q
n   0.84359082     Peri.  346.07332     +0.95069775     -0.20445707
a   1.1092978      Node    29.12701     +0.30999603     +0.60536145
e   0.0602868      Incl.   28.62335     +0.00873226     +0.76924302
P   1.17           H   19.0           G   0.15
From 18 observations 2005 Oct. 8-11.

Ephemeris:
2005 TF49                a,e,i = 1.11, 0.06, 29                  q = 1.0424
Date    TT    R. A. (2000) Decl.     Delta      r     Elong.  Phase     V
2005 10 07    07 24.97   +31 33.3    0.397    1.047    85.6    72.2    19.6
2005 10 17    08 18.50   +42 10.2    0.392    1.051    86.9    71.3    19.6
2005 10 27    09 26.24   +50 49.4    0.403    1.057    87.6    70.0    19.6
2005 11 06    10 45.10   +56 15.7    0.427    1.064    87.7    68.6    19.7
2005 11 16    12 04.00   +58 24.8    0.459    1.071    87.5    67.2    19.8
2005 11 26    13 11.75   +58 17.4    0.492    1.080    87.1    65.8    20.0
2005 12 06    14 04.89   +57 06.5    0.524    1.090    86.8    64.5    20.1

Timothy B. Spahr             (C) Copyright 2005 MPC           M.P.E.C. 2005-T64

Read MPEC 2005-T63 Read MPEC 2005-T65


Our Web policy. Index to the CBAT/MPC/ICQ pages.


Valid HTML 4.01!